| time (UTC) | temp C | wind direction | speed KPH | gust KPH | rain 1hr cm | rain 24hr cm | rain mn cm | humidity % | barometer mb |
| 20260506233356 | 17 | 281 | 9.7 | 14.5 | 0.00 | 0.43 | 0.43 | 90 | 1007.9 |
| 20260506232338 | 17 | 319 | 1.6 | 12.9 | 0.00 | 0.43 | 0.43 | 90 | 1007.4 |
| 20260506231339 | 17 | 321 | 4.8 | 11.3 | 0.00 | 0.43 | 0.43 | 91 | 1007.4 |
| 20260506230340 | 17 | 335 | 3.2 | 9.7 | 0.00 | 0.43 | 0.43 | 91 | 1007.2 |
| 20260506225314 | 17 | 297 | 4.8 | 9.7 | 0.00 | 0.43 | 0.43 | 91 | 1007.4 |
| 20260506224327 | 18 | 162 | 1.6 | 4.8 | 0.00 | 0.43 | 0.43 | 91 | 1007.3 |
| 20260506223345 | 18 | 162 | 0.0 | 1.6 | 0.00 | 0.43 | 0.43 | 92 | 1007.0 |
| 20260506222333 | 18 | 162 | 1.6 | 4.8 | 0.00 | 0.43 | 0.43 | 92 | 1006.9 |
| 20260506221318 | 18 | 162 | 0.0 | 0.0 | 0.00 | 0.43 | 0.43 | 92 | 1006.9 |
| 20260506220338 | 18 | 162 | 0.0 | 3.2 | 0.03 | 0.43 | 0.43 | 92 | 1006.9 |
| 20260506215333 | 18 | 286 | 1.6 | 4.8 | 0.03 | 0.43 | 0.43 | 91 | 1006.7 |
| 20260506214314 | 18 | 244 | 1.6 | 4.8 | 0.03 | 0.43 | 0.43 | 91 | 1006.9 |
| 20260506213332 | 18 | 234 | 3.2 | 3.2 | 0.03 | 0.43 | 0.43 | 91 | 1006.7 |
| 20260506212314 | 18 | 234 | 0.0 | 4.8 | 0.03 | 0.43 | 0.43 | 90 | 1006.5 |
| 20260506211340 | 18 | 234 | 1.6 | 6.4 | 0.03 | 0.43 | 0.43 | 90 | 1006.4 |
| 20260506210315 | 18 | 19 | 1.6 | 4.8 | 0.00 | 0.41 | 0.41 | 89 | 1006.1 |
| 20260506205313 | 18 | 264 | 1.6 | 3.2 | 0.00 | 0.41 | 0.41 | 89 | 1005.9 |
| 20260506204339 | 18 | 264 | 0.0 | 4.8 | 0.00 | 0.41 | 0.41 | 89 | 1005.9 |
| 20260506203332 | 18 | 219 | 1.6 | 11.3 | 0.00 | 0.41 | 0.41 | 89 | 1005.8 |
| 20260506202324 | 18 | 151 | 3.2 | 4.8 | 0.00 | 0.41 | 0.41 | 89 | 1005.7 |
| 20260506201339 | 18 | 130 | 1.6 | 4.8 | 0.00 | 0.41 | 0.41 | 89 | 1005.9 |
| 20260506200333 | 18 | 161 | 1.6 | 9.7 | 0.00 | 0.41 | 0.41 | 89 | 1006.0 |
| 20260506195318 | 18 | 154 | 3.2 | 8.0 | 0.00 | 0.41 | 0.41 | 89 | 1006.0 |
| 20260506194315 | 18 | 153 | 4.8 | 8.0 | 0.00 | 0.41 | 0.41 | 89 | 1006.0 |
| 20260506193316 | 18 | 175 | 3.2 | 8.0 | 0.00 | 0.41 | 0.41 | 89 | 1005.9 |
| 20260506192333 | 18 | 194 | 3.2 | 11.3 | 0.00 | 0.41 | 0.41 | 89 | 1006.1 |
| 20260506191317 | 18 | 174 | 4.8 | 11.3 | 0.00 | 0.41 | 0.41 | 90 | 1006.1 |
| 20260506190338 | 18 | 118 | 4.8 | 11.3 | 0.00 | 0.41 | 0.41 | 90 | 1006.1 |
| 20260506185339 | 18 | 158 | 3.2 | 9.7 | 0.00 | 0.41 | 0.41 | 92 | 1006.2 |
| 20260506184342 | 17 | 156 | 3.2 | 8.0 | 0.00 | 0.41 | 0.41 | 90 | 1006.4 |
| 20260506183314 | 17 | 159 | 3.2 | 11.3 | 0.00 | 0.41 | 0.41 | 90 | 1006.5 |
| 20260506182320 | 17 | 146 | 4.8 | 12.9 | 0.00 | 0.41 | 0.41 | 88 | 1006.6 |
| 20260506181338 | 18 | 189 | 6.4 | 14.5 | 0.00 | 0.41 | 0.41 | 88 | 1006.6 |
| 20260506180313 | 18 | 167 | 6.4 | 12.9 | 0.00 | 0.41 | 0.41 | 87 | 1006.5 |
| 20260506175314 | 18 | 223 | 9.7 | 16.1 | 0.00 | 0.41 | 0.41 | 85 | 1006.4 |
| 20260506174314 | 18 | 202 | 9.7 | 17.7 | 0.00 | 0.41 | 0.41 | 85 | 1006.5 |
| 20260506173322 | 18 | 172 | 9.7 | 17.7 | 0.00 | 0.41 | 0.41 | 84 | 1006.3 |
| 20260506172315 | 18 | 181 | 8.0 | 14.5 | 0.00 | 0.41 | 0.41 | 84 | 1006.2 |
| 20260506171318 | 18 | 147 | 8.0 | 19.3 | 0.00 | 0.41 | 0.41 | 83 | 1006.1 |
| 20260506170324 | 18 | 168 | 6.4 | 17.7 | 0.00 | 0.41 | 0.41 | 83 | 1006.2 |
| 20260506165336 | 18 | 178 | 9.7 | 17.7 | 0.00 | 0.41 | 0.41 | 83 | 1006.2 |
| 20260506164316 | 18 | 202 | 9.7 | 19.3 | 0.00 | 0.41 | 0.41 | 82 | 1006.2 |
| 20260506163339 | 18 | 151 | 6.4 | 22.5 | 0.00 | 0.41 | 0.41 | 84 | 1006.2 |
| 20260506162338 | 18 | 221 | 11.3 | 22.5 | 0.00 | 0.41 | 0.41 | 83 | 1006.3 |
| 20260506161349 | 18 | 145 | 11.3 | 19.3 | 0.00 | 0.41 | 0.41 | 85 | 1006.2 |
| 20260506160312 | 17 | 136 | 12.9 | 19.3 | 0.00 | 0.41 | 0.41 | 86 | 1006.2 |
| 20260506155338 | 17 | 150 | 14.5 | 32.2 | 0.00 | 0.41 | 0.41 | 86 | 1006.3 |
| 20260506154314 | 17 | 192 | 11.3 | 25.7 | 0.03 | 0.41 | 0.41 | 87 | 1006.5 |
| 20260506153339 | 17 | 197 | 12.9 | 25.7 | 0.03 | 0.41 | 0.41 | 88 | 1006.4 |
| 20260506152316 | 17 | 217 | 11.3 | 19.3 | 0.05 | 0.41 | 0.41 | 89 | 1006.2 |
| 20260506151327 | 17 | 165 | 9.7 | 24.1 | 0.05 | 0.41 | 0.41 | 91 | 1006.2 |
| 20260506150330 | 17 | 207 | 14.5 | 29.0 | 0.08 | 0.41 | 0.41 | 91 | 1006.2 |
| 20260506145338 | 16 | 159 | 8.0 | 17.7 | 0.10 | 0.41 | 0.41 | 92 | 1006.4 |
| 20260506144312 | 16 | 171 | 11.3 | 22.5 | 0.08 | 0.38 | 0.38 | 91 | 1006.3 |
| 20260506143314 | 16 | 163 | 11.3 | 20.9 | 0.10 | 0.38 | 0.38 | 91 | 1006.4 |
| 20260506142357 | 16 | 140 | 8.0 | 16.1 | 0.10 | 0.36 | 0.36 | 91 | 1006.8 |
| 20260506141313 | 16 | 184 | 11.3 | 29.0 | 0.15 | 0.36 | 0.36 | 90 | 1007.0 |
| 20260506140333 | 16 | 146 | 11.3 | 25.7 | 0.13 | 0.33 | 0.33 | 90 | 1007.0 |
| 20260506135327 | 16 | 173 | 9.7 | 22.5 | 0.10 | 0.30 | 0.30 | 90 | 1006.9 |
| 20260506134355 | 16 | 222 | 11.3 | 24.1 | 0.15 | 0.30 | 0.30 | 90 | 1006.8 |
| 20260506133337 | 16 | 169 | 14.5 | 22.5 | 0.15 | 0.28 | 0.28 | 90 | 1006.7 |
| 20260506132355 | 16 | 136 | 11.3 | 22.5 | 0.13 | 0.25 | 0.25 | 89 | 1006.7 |
| 20260506131313 | 16 | 175 | 16.1 | 24.1 | 0.08 | 0.20 | 0.20 | 89 | 1006.8 |
| 20260506130330 | 16 | 164 | 12.9 | 22.5 | 0.10 | 0.20 | 0.20 | 89 | 1006.9 |
| 20260506125332 | 16 | 153 | 11.3 | 17.7 | 0.13 | 0.20 | 0.20 | 88 | 1006.9 |
| 20260506124333 | 16 | 208 | 12.9 | 27.4 | 0.10 | 0.15 | 0.15 | 87 | 1006.9 |
| 20260506123330 | 16 | 171 | 9.7 | 22.5 | 0.08 | 0.13 | 0.13 | 87 | 1006.8 |
| 20260506122316 | 16 | 188 | 11.3 | 22.5 | 0.10 | 0.13 | 0.13 | 86 | 1006.8 |
| 20260506121338 | 16 | 132 | 14.5 | 25.7 | 0.10 | 0.13 | 0.13 | 86 | 1006.9 |
| 20260506120314 | 16 | 128 | 11.3 | 27.4 | 0.10 | 0.10 | 0.10 | 85 | 1007.1 |
| 20260506115336 | 16 | 148 | 11.3 | 17.7 | 0.08 | 0.08 | 0.08 | 84 | 1007.1 |
| 20260506114312 | 16 | 190 | 9.7 | 24.1 | 0.05 | 0.05 | 0.05 | 82 | 1007.3 |
| 20260506113335 | 16 | 121 | 12.9 | 24.1 | 0.05 | 0.05 | 0.05 | 81 | 1007.1 |
| 20260506112337 | 16 | 123 | 9.7 | 17.7 | 0.03 | 0.03 | 0.03 | 79 | 1007.2 |
| 20260506111315 | 17 | 151 | 11.3 | 19.3 | 0.00 | 0.00 | 0.00 | 77 | 1007.2 |
| 20260506110316 | 17 | 178 | 8.0 | 16.1 | 0.00 | 0.00 | 0.00 | 74 | 1006.9 |
| 20260506105338 | 17 | 107 | 11.3 | 19.3 | 0.00 | 0.00 | 0.00 | 73 | 1006.8 |
| 20260506104335 | 17 | 204 | 12.9 | 22.5 | 0.00 | 0.00 | 0.00 | 71 | 1006.6 |
| 20260506103333 | 17 | 162 | 11.3 | 24.1 | 0.00 | 0.00 | 0.00 | 70 | 1006.4 |
| 20260506102336 | 17 | 148 | 11.3 | 27.4 | 0.00 | 0.00 | 0.00 | 69 | 1006.4 |
| 20260506101339 | 18 | 184 | 12.9 | 22.5 | 0.00 | 0.00 | 0.00 | 68 | 1006.1 |
| 20260506100331 | 18 | 145 | 11.3 | 22.5 | 0.00 | 0.00 | 0.00 | 66 | 1006.0 |
| 20260506095345 | 18 | 173 | 12.9 | 25.7 | 0.00 | 0.00 | 0.00 | 63 | 1006.0 |
| 20260506094331 | 18 | 147 | 12.9 | 24.1 | 0.00 | 0.00 | 0.00 | 62 | 1005.9 |
| 20260506093311 | 18 | 160 | 12.9 | 22.5 | 0.00 | 0.00 | 0.00 | 61 | 1005.9 |
| 20260506092336 | 18 | 132 | 11.3 | 20.9 | 0.00 | 0.00 | 0.00 | 60 | 1006.0 |
| 20260506091312 | 19 | 146 | 11.3 | 19.3 | 0.00 | 0.00 | 0.00 | 60 | 1006.1 |
| 20260506090314 | 19 | 107 | 12.9 | 24.1 | 0.00 | 0.00 | 0.00 | 59 | 1006.1 |
| 20260506085314 | 19 | 192 | 16.1 | 24.1 | 0.00 | 0.00 | 0.00 | 59 | 1006.1 |
| 20260506084334 | 19 | 157 | 9.7 | 25.7 | 0.00 | 0.00 | 0.00 | 59 | 1006.3 |
| 20260506083401 | 19 | 177 | 11.3 | 22.5 | 0.00 | 0.00 | 0.00 | 60 | 1006.3 |
| 20260506082320 | 19 | 180 | 14.5 | 24.1 | 0.00 | 0.00 | 0.00 | 59 | 1006.4 |
| 20260506081320 | 19 | 243 | 9.7 | 24.1 | 0.00 | 0.00 | 0.00 | 59 | 1006.4 |
| 20260506080320 | 19 | 142 | 11.3 | 25.7 | 0.00 | 0.00 | 0.00 | 59 | 1006.3 |
| 20260506073340 | 19 | 148 | 9.7 | 22.5 | 0.00 | 0.00 | 0.00 | 56 | 1006.2 |
| 20260506072341 | 19 | 171 | 8.0 | 22.5 | 0.00 | 0.00 | 0.00 | 55 | 1006.3 |
| 20260506071317 | 20 | 232 | 9.7 | 19.3 | 0.00 | 0.00 | 0.00 | 53 | 1006.4 |
| 20260506070319 | 20 | 155 | 12.9 | 24.1 | 0.00 | 0.00 | 0.00 | 52 | 1006.4 |
| 20260506062342 | 20 | 142 | 11.3 | 27.4 | 0.00 | 0.00 | 0.00 | 49 | 1006.9 |
| 20260506061317 | 21 | 147 | 12.9 | 24.1 | 0.00 | 0.00 | 0.00 | 48 | 1007.0 |
| 20260506060318 | 21 | 205 | 12.9 | 19.3 | 0.00 | 0.00 | 0.00 | 48 | 1007.1 |
| 20260506051318 | 21 | 213 | 12.9 | 20.9 | 0.00 | 0.00 | 0.00 | 45 | 1007.5 |
| 20260506050318 | 21 | 149 | 9.7 | 27.4 | 0.00 | 0.00 | 0.00 | 45 | 1007.7 |
| 20260506044326 | 21 | 154 | 9.7 | 24.1 | 0.00 | 0.00 | 0.00 | 45 | 1007.7 |
| 20260506043325 | 21 | 196 | 11.3 | 17.7 | 0.00 | 0.00 | 0.00 | 45 | 1007.7 |
| 20260506042332 | 21 | 190 | 9.7 | 17.7 | 0.00 | 0.00 | 0.00 | 45 | 1007.6 |
| 20260506041315 | 21 | 180 | 12.9 | 22.5 | 0.00 | 0.00 | 0.00 | 44 | 1007.6 |
| 20260506040317 | 21 | 196 | 8.0 | 19.3 | 0.00 | 0.00 | 0.00 | 44 | 1007.6 |
| 20260506035319 | 21 | 213 | 8.0 | 14.5 | 0.00 | 0.00 | 0.00 | 43 | 1007.5 |
| 20260506034336 | 21 | 162 | 8.0 | 17.7 | 0.00 | 0.00 | 0.00 | 43 | 1007.5 |
| 20260506033325 | 21 | 128 | 9.7 | 20.9 | 0.00 | 0.00 | 0.00 | 42 | 1007.6 |
| 20260506032338 | 21 | 136 | 9.7 | 20.9 | 0.00 | 0.00 | 0.00 | 41 | 1007.5 |
| 20260506031340 | 21 | 221 | 11.3 | 24.1 | 0.00 | 0.00 | 0.00 | 41 | 1007.5 |
| 20260506030333 | 21 | 188 | 11.3 | 24.1 | 0.00 | 0.00 | 0.00 | 41 | 1007.5 |
| 20260506025341 | 21 | 165 | 9.7 | 19.3 | 0.00 | 0.00 | 0.00 | 40 | 1007.5 |
| 20260506024318 | 21 | 171 | 11.3 | 20.9 | 0.00 | 0.00 | 0.00 | 40 | 1007.5 |
| 20260506023316 | 21 | 206 | 9.7 | 22.5 | 0.00 | 0.00 | 0.00 | 38 | 1007.6 |
| 20260506022315 | 21 | 198 | 9.7 | 22.5 | 0.00 | 0.00 | 0.00 | 38 | 1007.5 |
| 20260506021340 | 22 | 173 | 9.7 | 24.1 | 0.00 | 0.00 | 0.00 | 38 | 1007.6 |
| 20260506020338 | 22 | 217 | 11.3 | 17.7 | 0.00 | 0.00 | 0.00 | 37 | 1007.6 |
| 20260506015320 | 22 | 173 | 9.7 | 24.1 | 0.00 | 0.00 | 0.00 | 36 | 1007.6 |
| 20260506014315 | 22 | 189 | 8.0 | 19.3 | 0.00 | 0.00 | 0.00 | 35 | 1007.5 |
| 20260506013339 | 22 | 171 | 11.3 | 25.7 | 0.00 | 0.00 | 0.00 | 35 | 1007.4 |
| 20260506011400 | 22 | 192 | 8.0 | 16.1 | 0.00 | 0.00 | 0.00 | 35 | 1007.1 |
| 20260506010339 | 22 | 183 | 9.7 | 20.9 | 0.00 | 0.00 | 0.00 | 35 | 1007.0 |
| 20260506005314 | 23 | 188 | 9.7 | 17.7 | 0.00 | 0.00 | 0.00 | 34 | 1006.9 |
| 20260506004319 | 23 | 162 | 9.7 | 17.7 | 0.00 | 0.00 | 0.00 | 34 | 1006.9 |
| 20260506003337 | 23 | 130 | 11.3 | 22.5 | 0.00 | 0.00 | 0.00 | 33 | 1006.7 |
| 20260506002333 | 23 | 186 | 14.5 | 22.5 | 0.00 | 0.00 | 0.00 | 33 | 1006.7 |
| 20260506001332 | 23 | 200 | 12.9 | 22.5 | 0.00 | 0.00 | 0.00 | 34 | 1006.5 |
| 20260506000334 | 23 | 174 | 9.7 | 17.7 | 0.00 | 0.00 | 0.00 | 35 | 1006.4 |
| 20260505235339 | 24 | 180 | 9.7 | 20.9 | 0.00 | 0.00 | 0.00 | 35 | 1006.3 |
| 20260505234337 | 24 | 181 | 11.3 | 22.5 | 0.00 | 0.00 | 0.00 | 34 | 1006.3 |
| 20260505233359 | 25 | 178 | 11.3 | 24.1 | 0.00 | 0.00 | 0.00 | 34 | 1006.4 |